"1998/01/01",1014.4,1017.5,1010.4
"1998/01/02",1017.1,1021.6,1010.5
"1998/01/03",1018.9,1021.1,1015.5
"1998/01/04",1007.6,1015.5,1001.2
"1998/01/05",1014.0,1016.8,1009.0
"1998/01/06",1012.0,1015.6,1008.5
"1998/01/07",1019.4,1022.2,1015.6
"1998/01/08",1016.5,1021.9,1007.6
"1998/01/09",1015.2,1020.9,1006.8
"1998/01/10",1019.2,1021.3,1017.3
"1998/01/11",1017.4,1019.5,1015.3
"1998/01/12",1014.7,1017.7,1011.9
"1998/01/13",1023.3,1026.7,1017.6
"1998/01/14",1024.8,1026.8,1022.3
"1998/01/15",1014.0,1023.6,1002.3
"1998/01/16",1010.8,1020.5,1001.8
"1998/01/17",1022.4,1025.2,1018.4
"1998/01/18",1004.2,1018.4, 995.9
"1998/01/19",1003.3,1012.5, 997.9
"1998/01/20",1015.5,1017.4,1012.4
"1998/01/21",1013.4,1015.8,1010.0
"1998/01/22",1016.9,1018.3,1015.5
"1998/01/23",1010.6,1016.5,1006.2
"1998/01/24",1003.6,1010.2, 998.6
"1998/01/25",1015.8,1018.4,1010.2
"1998/01/26",1014.9,1017.3,1012.1
"1998/01/27",1021.2,1023.7,1016.8
"1998/01/28",1018.4,1022.8,1015.9
"1998/01/29",1020.8,1025.9,1017.2
"1998/01/30",1024.7,1027.8,1020.4
"1998/01/31",1017.1,1020.4,1013.2
"1998/02/01",1022.1,1023.6,1018.9
"1998/02/02",1021.8,1023.4,1019.8
"1998/02/03",1016.7,1020.8,1010.8
"1998/02/04",1012.9,1016.0,1009.9
"1998/02/05",1015.9,1017.6,1014.2
"1998/02/06",1016.2,1018.1,1014.5
"1998/02/07",1017.3,1019.7,1013.1
"1998/02/08",1001.3,1013.1, 994.0
"1998/02/09",1007.6,1014.9, 998.7
"1998/02/10",1011.7,1017.9,1006.7
"1998/02/11",1022.6,1025.6,1017.9
"1998/02/12",1016.5,1024.3,1010.5
"1998/02/13",1016.7,1018.9,1013.2
"1998/02/14",1008.2,1015.2,1002.4
"1998/02/15",1013.5,1018.6,1010.8
"1998/02/16",1020.3,1022.2,1018.4
"1998/02/17",1020.9,1028.0,1017.1
"1998/02/18",1032.8,1036.8,1028.0
"1998/02/19",1033.1,1036.8,1028.0
"1998/02/20",1019.1,1028.0,1002.8
"1998/02/21",1013.6,1024.3,1001.1
"1998/02/22",1027.1,1028.5,1024.3
"1998/02/23",1025.1,1027.6,1022.8
"1998/02/24",1021.7,1023.3,1020.5
"1998/02/25",1016.2,1020.8,1012.0
"1998/02/26",1013.3,1016.4,1010.9
"1998/02/27",1015.4,1016.8,1013.7
"1998/02/28",1012.8,1015.1,1008.0
"1998/03/01",1007.0,1013.1,1003.9
"1998/03/02",1017.4,1020.8,1013.2
"1998/03/03",1020.0,1022.1,1018.1
"1998/03/04",1018.6,1020.5,1017.0
"1998/03/05",1019.5,1023.1,1012.3
"1998/03/06",1012.8,1014.2,1011.5
"1998/03/07",1012.5,1020.0,1009.5
"1998/03/08",1020.6,1023.1,1017.4
"1998/03/09",1013.1,1017.4,1008.9
"1998/03/10",1020.3,1024.3,1014.2
"1998/03/11",1021.3,1025.0,1013.1
"1998/03/12",1001.3,1013.1, 995.8
"1998/03/13",1000.0,1001.9, 997.2
"1998/03/14",1003.3,1006.4,1001.3
"1998/03/15",1001.2,1012.4, 991.6
"1998/03/16",1014.3,1016.7,1012.4
"1998/03/17",1016.3,1021.7,1014.2
"1998/03/18",1025.2,1028.8,1021.7
"1998/03/19",1022.5,1028.5,1014.5
"1998/03/20",1006.2,1014.6,1000.5
"1998/03/21",1013.9,1016.8,1008.5
"1998/03/22",1018.3,1022.4,1016.3
"1998/03/23",1023.0,1025.5,1021.2
"1998/03/24",1019.9,1022.9,1016.4
"1998/03/25",1017.5,1020.3,1014.7
"1998/03/26",1024.8,1027.6,1020.3
"1998/03/27",1017.4,1027.2,1009.8
"1998/03/28",1015.3,1018.6,1010.6
"1998/03/29",1019.0,1020.9,1017.2
"1998/03/30",1015.6,1018.4,1012.6
"1998/03/31",1014.0,1018.4,1012.4
"1998/04/01",1020.7,1022.6,1015.4
"1998/04/02",1009.2,1016.6,1003.2
"1998/04/03",1022.2,1025.3,1016.6
"1998/04/04",1026.0,1027.8,1025.1
"1998/04/05",1024.1,1025.8,1022.1
"1998/04/06",1021.4,1023.8,1017.9
"1998/04/07",1014.4,1017.9,1010.7
"1998/04/08",1016.0,1018.4,1014.2
"1998/04/09",1013.6,1018.3,1007.0
"1998/04/10",1011.1,1014.4,1007.3
"1998/04/11",1016.0,1020.6,1013.6
"1998/04/12",1022.7,1025.9,1020.0
"1998/04/13",1014.2,1020.1,1010.2
"1998/04/14",1009.2,1010.7,1007.4
"1998/04/15",1008.9,1011.9,1005.0
"1998/04/16",1015.5,1018.5,1011.3
"1998/04/17",1015.6,1017.9,1012.3
"1998/04/18",1014.1,1016.4,1012.3
"1998/04/19",1013.6,1017.4,1011.6
"1998/04/20",1020.7,1022.6,1016.7
"1998/04/21",1019.9,1022.0,1017.4
"1998/04/22",1017.3,1018.6,1015.6
"1998/04/23",1015.3,1017.3,1013.3
"1998/04/24",1006.9,1013.4,1002.6
"1998/04/25",1001.6,1005.3, 999.9
"1998/04/26",1014.3,1021.5,1005.1
"1998/04/27",1020.9,1022.5,1019.4
"1998/04/28",1021.6,1023.5,1019.7
"1998/04/29",1017.0,1020.0,1014.5
"1998/04/30",1022.6,1027.1,1017.8
"1998/05/01",1025.8,1028.9,1022.0
"1998/05/02",1014.1,1022.0,1004.8
"1998/05/03",1004.3,1012.3,1001.4
"1998/05/04",1020.2,1024.6,1012.2
"1998/05/05",1025.1,1026.5,1023.9
"1998/05/06",1021.8,1024.5,1019.1
"1998/05/07",1017.4,1020.0,1014.5
"1998/05/08",1008.2,1014.6,1003.6
"1998/05/09",1015.0,1017.4,1009.9
"1998/05/10",1014.5,1019.5,1011.7
"1998/05/11",1022.6,1024.4,1019.3
"1998/05/12",1013.3,1020.8,1005.6
"1998/05/13",1006.1,1011.6,1002.7
"1998/05/14",1013.2,1014.7,1010.7
"1998/05/15",1016.9,1019.7,1014.5
"1998/05/16",1020.2,1021.8,1018.7
"1998/05/17",1014.4,1018.7,1011.2
"1998/05/18",1010.7,1012.9,1008.6
"1998/05/19",1010.0,1013.4,1007.9
"1998/05/20",1015.1,1017.7,1013.3
"1998/05/21",1017.1,1018.5,1015.6
"1998/05/22",1018.5,1020.2,1016.4
"1998/05/23",1017.9,1020.2,1014.9
"1998/05/24",1012.1,1017.3,1003.7
"1998/05/25", 999.4,1004.2, 996.8
"1998/05/26",1009.7,1012.9,1004.0
"1998/05/27",1016.0,1019.5,1012.1
"1998/05/28",1019.2,1021.1,1016.9
"1998/05/29",1010.3,1017.4,1003.3
"1998/05/30",1002.4,1003.6,1001.1
"1998/05/31",1007.4,1009.7,1002.8
"1998/06/01",1006.4,1009.1,1003.1
"1998/06/02",1009.5,1012.4,1005.3
"1998/06/03",1007.2,1011.3,1002.7
"1998/06/04",1004.4,1008.0,1001.7
"1998/06/05",1010.7,1012.8,1007.7
"1998/06/06",1012.5,1015.6,1010.3
"1998/06/07",1013.7,1015.4,1012.2
"1998/06/08",1017.2,1020.8,1013.1
"1998/06/09",1019.6,1021.1,1016.9
"1998/06/10",1010.4,1016.9,1006.1
"1998/06/11",1009.8,1013.2,1007.3
"1998/06/12",1014.8,1016.0,1012.2
"1998/06/13",1011.8,1015.2,1006.5
"1998/06/14",1001.7,1006.5, 994.3
"1998/06/15", 998.9,1003.2, 996.3
"1998/06/16",1004.4,1006.1,1003.0
"1998/06/17",1005.5,1007.2,1004.5
"1998/06/18",1008.4,1010.7,1006.1
"1998/06/19",1006.1,1009.9, 999.5
"1998/06/20",1004.0,1010.7, 997.8
"1998/06/21",1013.5,1015.2,1010.5
"1998/06/22",1014.1,1016.9,1012.3
"1998/06/23",1017.5,1018.8,1015.5
"1998/06/24",1019.0,1020.0,1017.7
"1998/06/25",1018.3,1019.8,1017.0
"1998/06/26",1013.7,1017.1,1010.8
"1998/06/27",1007.6,1010.9,1004.8
"1998/06/28",1004.4,1007.0,1002.2
"1998/06/29",1003.7,1006.1,1002.0
"1998/06/30",1009.2,1011.8,1006.0
"1998/07/01",1011.7,1013.3,1010.5
"1998/07/02",1009.9,1011.7,1007.9
"1998/07/03",1009.0,1010.5,1007.0
"1998/07/04",1009.1,1010.8,1007.2
"1998/07/05",1012.0,1015.1,1008.0
"1998/07/06",1014.1,1015.2,1012.7
"1998/07/07",1012.5,1013.9,1011.0
"1998/07/08",1008.2,1011.2,1005.7
"1998/07/09",1004.0,1005.8,1001.2
"1998/07/10",1002.5,1004.1,1001.5
"1998/07/11",1001.1,1002.9, 999.6
"1998/07/12",1005.4,1008.1,1002.3
"1998/07/13",1009.9,1012.3,1007.7
"1998/07/14",1012.0,1013.0,1011.0
"1998/07/15",1010.4,1012.0,1008.4
"1998/07/16",1006.9,1008.5,1005.0
"1998/07/17",1002.5,1005.3,1000.3
"1998/07/18",1003.3,1005.9,1001.4
"1998/07/19",1003.4,1004.6,1001.7
"1998/07/20",1003.5,1004.8,1002.3
"1998/07/21",1006.3,1007.6,1004.4
"1998/07/22",1007.2,1008.7,1004.3
"1998/07/23",1006.9,1011.3,1001.4
"1998/07/24",1012.5,1014.2,1010.7
"1998/07/25",1011.1,1014.0,1008.6
"1998/07/26",1007.4,1008.9,1005.9
"1998/07/27",1006.6,1007.8,1004.9
"1998/07/28",1005.9,1007.0,1004.1
"1998/07/29",1004.3,1006.0,1002.7
"1998/07/30",1005.9,1008.9,1003.8
"1998/07/31",1010.7,1012.3,1008.4
"1998/08/01",1011.1,1012.4,1009.4
"1998/08/02",1009.3,1010.4,1008.2
"1998/08/03",1010.5,1011.7,1009.0
"1998/08/04",1009.8,1011.2,1008.3
"1998/08/05",1008.3,1009.0,1006.9
"1998/08/06",1009.1,1010.4,1007.8
"1998/08/07",1006.4,1008.7,1004.0
"1998/08/08",1008.9,1010.8,1007.1
"1998/08/09",1009.8,1010.9,1008.6
"1998/08/10",1008.3,1009.4,1006.8
"1998/08/11",1007.8,1008.8,1006.7
"1998/08/12",1005.4,1007.2,1003.5
"1998/08/13",1004.7,1005.9,1002.8
"1998/08/14",1007.0,1011.1,1004.2
"1998/08/15",1011.7,1013.1,1009.6
"1998/08/16",1003.3,1009.6,1000.2
"1998/08/17",1004.2,1007.1,1001.2
"1998/08/18",1010.2,1012.9,1006.4
"1998/08/19",1010.5,1012.4,1008.7
"1998/08/20",1008.1,1009.6,1006.3
"1998/08/21",1010.7,1012.7,1008.5
"1998/08/22",1014.6,1016.9,1012.0
"1998/08/23",1014.6,1016.5,1012.8
"1998/08/24",1009.6,1013.0,1006.8
"1998/08/25",1004.5,1006.9,1003.0
"1998/08/26",1005.0,1006.9,1003.3
"1998/08/27",1006.4,1007.6,1005.2
"1998/08/28",1005.3,1006.8,1003.8
"1998/08/29",1005.1,1006.3,1004.3
"1998/08/30",1005.3,1006.9,1003.8
"1998/08/31",1005.5,1006.9,1004.5
"1998/09/01",1007.0,1008.0,1005.6
"1998/09/02",1007.4,1008.3,1006.5
"1998/09/03",1008.7,1010.1,1007.5
"1998/09/04",1009.6,1010.4,1008.3
"1998/09/05",1010.0,1011.1,1008.7
"1998/09/06",1010.9,1011.9,1009.8
"1998/09/07",1010.7,1012.1,1009.1
"1998/09/08",1009.1,1010.3,1008.0
"1998/09/09",1011.1,1013.1,1009.7
"1998/09/10",1013.7,1015.0,1012.3
"1998/09/11",1014.1,1014.8,1013.1
"1998/09/12",1013.2,1014.3,1011.9
"1998/09/13",1013.2,1015.1,1011.9
"1998/09/14",1014.4,1016.3,1011.4
"1998/09/15",1007.7,1011.4, 999.7
"1998/09/16", 989.9, 999.9, 969.9
"1998/09/17",1005.2,1013.9, 997.8
"1998/09/18",1016.7,1019.4,1013.3
"1998/09/19",1017.8,1019.3,1015.8
"1998/09/20",1015.6,1017.3,1014.1
"1998/09/21",1011.9,1015.2,1007.5
"1998/09/22",1007.4,1010.7,1003.6
"1998/09/23",1013.9,1018.8,1005.9
"1998/09/24",1019.4,1020.8,1018.3
"1998/09/25",1015.1,1018.5,1013.2
"1998/09/26",1017.0,1020.0,1013.8
"1998/09/27",1021.1,1022.5,1019.5
"1998/09/28",1020.4,1021.5,1019.5
"1998/09/29",1020.6,1021.8,1019.1
"1998/09/30",1014.8,1019.3,1010.7
"1998/10/01",1005.1,1010.8, 999.5
"1998/10/02",1000.6,1007.4, 997.8
"1998/10/03",1013.2,1015.6,1007.3
"1998/10/04",1017.7,1022.4,1014.6
"1998/10/05",1023.5,1025.7,1021.7
"1998/10/06",1019.0,1021.8,1016.5
"1998/10/07",1013.2,1016.7,1007.1
"1998/10/08",1002.4,1007.1, 998.3
"1998/10/09",1012.6,1016.9,1007.0
"1998/10/10",1018.9,1022.5,1016.8
"1998/10/11",1026.9,1029.0,1022.4
"1998/10/12",1027.5,1029.4,1025.6
"1998/10/13",1023.8,1026.7,1021.0
"1998/10/14",1018.1,1021.7,1015.1
"1998/10/15",1011.8,1015.2,1009.5
"1998/10/16",1012.1,1013.5,1010.1
"1998/10/17",1011.0,1012.7,1006.2
"1998/10/18",1000.9,1006.7, 996.9
"1998/10/19",1011.1,1015.5,1006.6
"1998/10/20",1020.6,1024.5,1014.2
"1998/10/21",1022.3,1024.8,1018.7
"1998/10/22",1019.8,1023.0,1017.1
"1998/10/23",1024.1,1025.5,1022.4
"1998/10/24",1018.6,1023.4,1014.0
"1998/10/25",1015.5,1018.3,1013.5
"1998/10/26",1017.1,1020.8,1014.7
"1998/10/27",1020.6,1023.7,1015.8
"1998/10/28",1013.7,1015.9,1011.1
"1998/10/29",1014.6,1016.0,1012.8
"1998/10/30",1014.5,1017.2,1011.3
"1998/10/31",1012.0,1014.7,1009.6
"1998/11/01",1013.7,1016.9,1011.5
"1998/11/02",1016.6,1019.7,1013.4
"1998/11/03",1017.1,1021.9,1012.4
"1998/11/04",1015.1,1021.5,1010.3
"1998/11/05",1018.3,1023.9,1012.1
"1998/11/06",1025.3,1027.2,1023.5
"1998/11/07",1015.0,1023.8,1009.7
"1998/11/08",1010.6,1011.8,1009.4
"1998/11/09",1005.2,1010.4, 999.7
"1998/11/10",1009.5,1015.1,1000.2
"1998/11/11",1011.4,1014.8,1008.3
"1998/11/12",1014.9,1020.1,1008.8
"1998/11/13",1018.2,1020.9,1015.0
"1998/11/14",1015.2,1018.2,1013.0
"1998/11/15",1017.2,1020.2,1014.7
"1998/11/16",1010.9,1015.0,1003.2
"1998/11/17", 995.2,1003.3, 989.6
"1998/11/18",1006.8,1013.8, 999.0
"1998/11/19",1015.1,1016.5,1013.6
"1998/11/20",1015.8,1018.2,1012.5
"1998/11/21",1014.3,1017.0,1012.4
"1998/11/22",1019.9,1022.0,1016.4
"1998/11/23",1017.4,1020.0,1014.9
"1998/11/24",1017.3,1020.4,1013.6
"1998/11/25",1018.6,1022.9,1013.7
"1998/11/26",1025.5,1027.1,1022.8
"1998/11/27",1018.7,1025.4,1008.4
"1998/11/28",1009.5,1017.4,1005.3
"1998/11/29",1021.0,1022.5,1017.3
"1998/11/30",1019.2,1021.6,1016.9
"1998/12/01",1012.6,1017.0,1009.4
"1998/12/02",1019.7,1024.8,1013.4
"1998/12/03",1024.9,1026.7,1022.7
"1998/12/04",1026.0,1027.6,1024.4
"1998/12/05",1020.7,1026.8,1016.1
"1998/12/06",1025.7,1031.4,1017.6
"1998/12/07",1024.1,1031.2,1012.6
"1998/12/08",1013.2,1018.2,1010.5
"1998/12/09",1020.3,1022.8,1017.3
"1998/12/10",1026.4,1028.2,1022.5
"1998/12/11",1020.1,1026.0,1014.1
"1998/12/12",1026.4,1029.3,1023.0
"1998/12/13",1021.7,1025.3,1017.9
"1998/12/14",1014.3,1018.1,1009.8
"1998/12/15",1013.0,1015.6,1009.0
"1998/12/16",1013.2,1015.2,1011.2
"1998/12/17",1016.7,1022.5,1013.0
"1998/12/18",1022.4,1025.7,1017.8
"1998/12/19",1010.6,1017.9,1004.5
"1998/12/20",1007.6,1013.4,1003.2
"1998/12/21",1015.6,1017.4,1013.0
"1998/12/22",1013.2,1017.3,1010.0
"1998/12/23",1011.0,1013.6,1008.7
"1998/12/24",1013.5,1018.5,1008.5
"1998/12/25",1018.0,1021.0,1013.2
"1998/12/26",1014.0,1018.7,1010.9
"1998/12/27",1019.9,1021.5,1018.5
"1998/12/28",1023.4,1025.6,1020.9
"1998/12/29",1018.3,1024.8,1011.9
"1998/12/30",1012.4,1015.8,1009.8
"1998/12/31",1014.2,1016.0,1012.2
